Regional Weather Roundup
Issued by NWS

Home | Current Version | Previous Version | Graphics & Text | Print | Product List | Glossary On
Versions: 1 2 3 4 5 6 7 8 9 10 11 12 13 14 15 16 17 18 19 20 21 22 23 24 25 26 27 28 29 30 31 32 33 34 35 36 37 38 39 40 41 42 43 44 45 46 47 48 49 50
000
ASUS43 KIND 080809
RWRIN

WEATHER ROUNDUP FOR INDIANA
NATIONAL WEATHER SERVICE INDIANAPOLIS IN
300 AM EST MON FEB 08 2016

NOTE: "FAIR" INDICATES FEW OR NO CLOUDS BELOW 12,000 FEET WITH NO
SIGNIFICANT WEATHER AND/OR OBSTRUCTIONS TO VISIBILITY.

* - STATION DOES NOT REPORT WEATHER SUCH AS PRECIPITATION OR FOG.

+ - STATION NOT QUALITY CONTROLLED BY THE NATIONAL WEATHER SERVICE.
    USE DATA WITH CAUTION...ESPECIALLY DEWPOINT AND RELATIVE
    HUMIDITY OBSERVATIONS.

INZ001>003-010>013-019-020-080900-
NORTHWEST INDIANA

CITY           SKY/WX    TMP DP  RH WIND       PRES   REMARKS
GARY /AIRPORT/ CLEAR     32  27  82 CALM      29.67F
LA PORTE +     PTCLDY    28  27  99 CALM      29.67F
MICHIGAN CITY+ CLEAR     30  27  86 CALM      29.67F
MONTICELLO +   PTCLDY    33  26  72 W5        29.69S WCI  29
RENSSELAER +   CLEAR     32  28  86 SW6       29.69S WCI  26
VALPARAISO     CLEAR     30  25  81 SW5       29.67F WCI  25

$$

LMZ046-743>745-080900-
SOUTHERN LAKE MICHIGAN

STATION/POSITION TIME  TEMP    WIND        PRES    WAVE
                       AIR SEA DIR/SP/G            HT
                 (UTC) (F)     (DEG/KT/KT) (MB)    (FT)
BURNS HARBOR     0700   35     230/  8/ 11 1005.8F
MICHIGAN CITY    0700   35     210/ 11/ 11   N/A

$$

INZ004-005-014>016-021>024-080900-
NORTH CENTRAL INDIANA

CITY           SKY/WX    TMP DP  RH WIND       PRES   REMARKS
GOSHEN         CLOUDY    33  27  78 SW5       29.66F WCI  29
LOGANSPORT +   PTCLDY    32  27  80 SW3       29.70F
PERU/GRISSOM   CLEAR     30  29  95 W7        29.67F WCI  23
ROCHESTER +    CLEAR     34  28  80 CALM      29.68F
SOUTH BEND     PTCLDY    27  25  92 SW5       29.67F WCI  22
WARSAW +       CLOUDY    32  30  93 CALM      29.67F

$$

INZ006>009-017-018-025>027-080900-
NORTHEAST INDIANA

CITY           SKY/WX    TMP DP  RH WIND       PRES   REMARKS
ANGOLA *+      CLEAR     34  30  86 CALM      29.65F
AUBURN +       CLOUDY    34  30  86 SW3       29.67F
FORT WAYNE     CLOUDY    32  30  92 SW7       29.68F WCI  26
HUNTINGTON +   MOCLDY    31  28  86 CALM      29.68F

$$

INZ028-029-035-036-043>045-051>053-080900-
WEST CENTRAL INDIANA

CITY           SKY/WX    TMP DP  RH WIND       PRES   REMARKS
GREENCASTLE +  CLOUDY    36  28  75 W8G16     29.73S
LAFAYETTE      CLEAR     32  26  78 W5        29.70F WCI  27
TERRE HAUTE    CLOUDY    35  31  85 NW7       29.74F WCI  29

$$

INZ030>032-037>040-046>048-054>057-064-065-080900-
CENTRAL INDIANA

CITY           SKY/WX    TMP DP  RH WIND       PRES   REMARKS
FISHERS *+     CLOUDY    36  32  87 CALM      29.70F
FRANKFORT +    CLOUDY    34  25  70 W9        29.71S WCI  27
GREENWOOD *+   CLOUDY    39  34  81 W5        29.72F
INDIANAPOLIS   CLOUDY    37  30  75 SW9       29.70F
-EAGLE CREEK   CLOUDY    37  31  78 SW5       29.70F
KOKOMO *+        N/A     34  27  75 W6        29.69S WCI  29
MARION +       MOCLDY    32  26  76 CALM      29.69F
MT COMFORT *+  CLOUDY    34  32  93 SW5       29.71S WCI  30
SHELBYVILLE    CLOUDY    37  31  78 SW6       29.71F
ZIONSVILLE +   CLOUDY    33  30  88 SW3       29.70F

$$

INZ033-034-041-042-049-050-058-059-080900-
EAST CENTRAL INDIANA

CITY           SKY/WX    TMP DP  RH WIND       PRES   REMARKS
MUNCIE         CLOUDY    37  31  78 W5        29.68F

$$

INZ060-061-067>069-081>083-085>088-080900-
SOUTHWEST INDIANA

CITY           SKY/WX    TMP DP  RH WIND       PRES   REMARKS
EVANSVILLE     CLEAR     38  33  82 CALM      29.79F
HUNTINGBURG *+ CLOUDY    36  30  80 CALM      29.78F
WASHINGTON +   CLOUDY    37  32  83 W5        29.76F

$$

INZ062-063-066-070>080-084-089>092-080900-
SOUTH CENTRAL AND SOUTHEAST INDIANA

CITY           SKY/WX    TMP DP  RH WIND       PRES   REMARKS
BEDFORD +      RAIN      37  36  93 W8        29.76R
BLOOMINGTON    LGT RAIN  38  33  82 W6        29.73F
MADISON *+     CLOUDY    41  30  65 CALM      29.74F
NORTH VERNON + CLOUDY    41  32  70 CALM      29.73F
SEYMOUR +      CLOUDY    41  32  70 SW7       29.73F

$$





USA.gov is the U.S. government's official web portal to all federal, state and local government web resources and services.